Regional Weather Roundup
Issued by NWS

Home | Current Version | Previous Version | Graphics & Text | Print | Product List | Glossary On
Versions: 1 2 3 4 5 6 7 8 9 10 11 12 13 14 15 16 17 18 19 20 21 22 23 24 25 26 27 28
000
ASUS45 KSLC 190610
RWRUT

UTAH REGIONAL WEATHER ROUNDUP
NATIONAL WEATHER SERVICE SALT LAKE CITY UT
1200 AM MDT SAT APR 19 2014

UTZ001>011-023>025-190700-

NORTHERN UTAH

CITY           SKY/WX    TMP DP  RH WIND       PRES   REMARKS
HILL AFB       PTCLDY    52  37  55 E5        29.98S
LOGAN          MOCLDY    44  37  76 CALM      30.01R
OGDEN          PTCLDY    50  40  68 SE3       29.97S
PROVO AIRPORT  MOCLDY    52  43  71 CALM      29.99R
SALT LAKE CITY MOCLDY    50  47  89 SW5       29.97R
VERNAL         CLOUDY    58  23  26 NE3       29.95R
WENDOVER       MOCLDY    55  37  50 N10       29.98R
HEBER CITY     CLOUDY    45  32  61 CALM      30.00R
WEST JORDAN    PTCLDY    52  43  71 CALM      29.99R

$$

UTZ012>022-026-027-190700-

SOUTHERN UTAH

CITY           SKY/WX    TMP DP  RH WIND       PRES   REMARKS
BRYCE CANYON   MOCLDY    35  24  64 W3        30.12S
CEDAR CITY     MOCLDY    50  24  36 SE7       30.02S
MILFORD        PTCLDY    54  24  31 S12       29.98R
MOAB/CYNLANDS  CLOUDY    65  30  27 N6        29.96R
PRICE          CLOUDY    59  23  25 S9        30.00R
ST GEORGE      CLOUDY    68  30  24 CALM      29.93S

$$

REGIONAL REPORTS     COLORADO/ARIZONA

CITY           SKY/WX    TMP DP  RH WIND       PRES   REMARKS
CRAIG, CO      MOCLDY    45  34  65 CALM      30.02R
GRAND JUNCTION CLOUDY    61  29  29 NW9       29.99R
RIFLE          CLOUDY    59  31  34 S14       30.01R
MONTROSE       CLOUDY    60  29  30 SE13      30.05R
CORTEZ         CLOUDY    53  33  46 CALM      30.10R
PAGE, AZ       CLOUDY    62  37  39 S20G25    30.00R
GRAND CANYON   CLOUDY    45  39  79 S5        30.13S
KINGMAN        LGT RAIN  59  42  53 SE24      29.99R
FLAGSTAFF      CLOUDY    42  40  92 CALM      30.13F

$$

REGIONAL REPORTS    NEVADA/IDAHO/WYOMING

CITY           SKY/WX    TMP DP  RH WIND       PRES   REMARKS
LAS VEGAS, NV  CLOUDY    74  31  20 S13       29.83S
ELY            MOCLDY    46  30  53 S12       30.02R
ELKO           CLOUDY    47  27  45 CALM      29.98R
POCATELLO, ID  CLEAR     46  18  32 S15       30.00S
BURLEY         CLEAR     40  30  67 SW10      30.00R WCI  33
EVANSTON, WY   CLOUDY    42  31  64 N5        30.07R
ROCK SPRINGS   CLOUDY    47  31  53 W10       30.03R

$$



USA.gov is the U.S. government's official web portal to all federal, state and local government web resources and services.